Regional Weather Roundup
Issued by NWS

Home | Current Version | Previous Version | Graphics & Text | Print | Product List | Glossary On
Versions: 1 2 3 4 5 6 7 8 9 10 11 12 13 14 15 16 17 18 19 20 21 22 23 24 25 26 27
000
ASUS45 KTFX 231510
RWRMT
MONTANA REGIONAL WEATHER ROUNDUP
NATIONAL WEATHER SERVICE GREAT FALLS MT
800 AM MST THU FEB 23 2017

NOTE: "FAIR" INDICATES FEW OR NO CLOUDS BELOW 12000 FEET WITH NO
SIGNIFICANT WEATHER AND/OR OBSTRUCTIONS TO VISIBILITY.

MTZ001>007-043-231600-
WEST OF THE DIVIDE

CITY           SKY/WX    TMP DP  RH WIND       PRES   REMARKS
KALISPELL      CLOUDY    26  20  77 NW5       29.96R
MISSOULA       CLOUDY    30  23  75 NW7       29.94R WCI  23
BUTTE          LGT SNOW  24  16  71 N14       29.80R WCI  12
MULLAN PASS    CLOUDY    18  14  84 NW5       29.83S
ANACONDA         N/A     25  16  68 N12G17    29.84R WCI  14
DEER LODGE       N/A     27  18  69 N12       29.88S WCI  16
EUREKA           N/A     23  19  86 CALM      30.02S
HAMILTON         N/A     28  25  86 N9          N/A  WCI  20
LIBBY            N/A     21  19  93 CALM      30.02R
PLAINS           N/A     24  17  74 CALM      29.99S
RONAN            N/A     24  19  81 N1        29.98S
$$

MTZ008-052>055-231600-
SOUTHWEST MONTANA

CITY           SKY/WX    TMP DP  RH WIND       PRES   REMARKS
BOZEMAN        CLOUDY    27  21  78 W3        29.83R
DILLON         CLOUDY    25  18  74 N21       29.74R WCI  11
W YELLOWSTONE  CLOUDY    19  10  68 NE12      29.68R WCI   7
ENNIS          MOCLDY    23  21  93 NW18G29   29.79R WCI   9
THREE FORKS      N/A     30 -34   5 N5        29.85R
$$

MTZ009-010-012-014-046-048-049-054-231600-
EAST SLOPES AND CENTRAL MONTANA

CITY           SKY/WX    TMP DP  RH WIND       PRES   REMARKS
CUT BANK       CLOUDY    20  16  84 NE10      30.01R WCI   9
GREAT FALLS    CLOUDY    25  22  88 NE9       29.96R WCI  15
MALMSTROM AFB  CLOUDY    25  25 100 NE8       29.97S WCI  16
HELENA         CLOUDY    29  23  78 N7        29.90R WCI  22
AUGUSTA        SNOWSHWR  23  23 100 NE10      29.94R VSB 5/8 WCI  13
BOWMANS CRNR   SNOW      23  22  99 NE15      29.91R VSB 1/2 WCI  10
CHOTEAU          N/A     25  25 100 N9        29.99S FOG     WCI  15
CONRAD           N/A     25  24  96 N5        30.02R
POWER          FOG       24  24  99 NE13      29.96R VSB 3/16WCI  12
RAYNESFORD     FLURRIES  26  22  87 E9        29.94R WCI  16
ULM            MOCLDY    26  25  95 MISG      29.96R
$$

MTZ011-013-016-021-045-047-050-051-231600-
NORTH CENTRAL MONTANA

CITY           SKY/WX    TMP DP  RH WIND       PRES   REMARKS
HAVRE          FLURRIES  24  21  88 NE15      30.05R WCI  11
LEWISTOWN      FLURRIES  22  19  89 E8        29.92R WCI  12
N BAR RANCH    CLOUDY    21  19  93 NE9       29.93R WCI  11
CHINOOK          N/A     27  21  80 NE3       30.06S
DENTON         FLURRIES  24  22  95 NE13      29.93R WCI  12
FORT BENTON      N/A     27  23  86 CALM      30.02S
GEYSER         LGT SNOW  24  23  97 NE7       29.94R WCI  15
GRASS RANGE    CLOUDY    23  23  98 NE8       29.92R WCI  14
JUDITH GAP     LGT SNOW  22  20  93 N18       29.88R FOG     WCI   7
ROY            MOCLDY    23  22  99 MISG      29.96R
STANFORD       FLURRIES  22  21  99 NE8       29.93R WCI  12
WINIFRED       MOCLDY    23  23  98 E8        29.96R WCI  14
$$

MTZ017>020-022>027-061-062-231600-
NORTHEAST MONTANA

CITY           SKY/WX    TMP DP  RH WIND       PRES   REMARKS
GLASGOW        LGT SNOW  27  25  92 N5        30.03R FOG
JORDAN           N/A     24  21  88 N7        29.99R WCI  16
SIDNEY         PTSUNNY   25  23  92 N6        30.03R FOG     WCI  18
WOLF POINT     CLEAR     24  22  91 CALM      30.03S FOG
PLENTYWOOD       N/A     21  18  86 NE16      30.05S VSB 1   WCI   7
POPLAR           N/A     27  25  93 NE5       30.04R
SCOBEY           N/A     23  15  71 N13       30.03R WCI  11
$$

MTZ028>42-056>058-231600-
SOUTHCENTRAL AND SOUTHEAST MONTANA

CITY           SKY/WX    TMP DP  RH WIND       PRES   REMARKS
BAKER          CLOUDY    25  22  88 E9        29.96R WCI  15
BILLINGS       CLOUDY    27  25  92 NE12      29.91R WCI  17
LIVINGSTON     LGT SNOW  26  22  84 E17       29.83R VSB 3/4 WCI  13
MILES CITY     CLOUDY    29  25  85 NE9       29.97R WCI  20
BIG TIMBER     CLOUDY    27  25  93 E7        29.89R FOG     WCI  19
EKALAKA          N/A     25  22  88 NE8       29.89R WCI  16
FORSYTH          N/A     28  25  86 NE5       29.96R
HARLOWTON      LGT SNOW  24  22  93 MISG      29.89R
LAUREL           N/A     27  23  84 CALM      29.89R
$$

REGIONAL REPORTS...DAKOTAS

CITY           SKY/WX    TMP DP  RH WIND       PRES   REMARKS
WILLISTON      CLOUDY    28  24  85 NE14      30.04R WCI  17
MINOT          CLOUDY    24  18  77 N18       30.05R WCI  10
DICKINSON      CLOUDY    26  24  92 N5        29.96R FOG
BEACH            N/A    N/A N/A N/A MISG        N/A
CROSBY         LGT SNOW  23  23 100 N13       30.09S WCI  11
TIOGA          CLOUDY    25  25 100 E15       30.04R WCI  12
WATFORD CITY   CLOUDY    25  25 100 CALM      30.02R FOG
BISMARCK       CLOUDY    29  25  85 CALM      30.03R
GRAND FORKS    CLOUDY    29  21  72 N13       30.05S WCI  19
FARGO          CLOUDY    30  22  72 N15       30.02F WCI  19
BUFFALO SD       N/A     27  24  89 NE14      29.86R WCI  16
RAPID CITY     LGT SNOW  26  23  88 NE15      29.86S FOG     WCI  14
$$

REGIONAL REPORTS...WYOMING/IDAHO/WASHINGTON

CITY           SKY/WX    TMP DP  RH WIND       PRES   REMARKS
GILLETTE       CLOUDY    26  24  92 NE21      29.79R WCI  12
SHERIDAN       CLOUDY    28  25  88 NE9       29.84R WCI  19
BUFFALO WY     CLOUDY    26  22  84 N13G22    29.79R WCI  15
CODY           FLURRIES  24  21  88 N16       29.77R WCI  11
YELLOWSTONE LA   N/A     15   7  70 VRB6      29.64S WCI   6
IDAHO FALLS    LGT SNOW  27  26  96 S9        29.66R VSB 3/4 WCI  18
SALMON         CLOUDY    30  23  74 N3        29.75R
BOISE          CLOUDY    30  24  78 NW21G28   29.85R WCI  17
SPOKANE        FOG       24  23  96 NE6       30.04R VSB 1/4 WCI  17
$$

REGIONAL REPORTS...ALBERTA

CITY           SKY/WX    TMP DP  RH WIND       PRES   REMARKS
EDMONTON       FLURRIES  21  18  86 NW2       30.07S
CALGARY        LGT SNOW  19  18  93 CALM      30.02S FOG
LETHBRIDGE     FLURRIES  23  23 100 E6        30.06S WCI  16
MEDICINE HAT   CLOUDY    16  14  93 VRB2      30.12R FOG
WATERTON GATE    N/A     19  18  93 NE7         N/A  WCI  10
CARDSTON         N/A     19  18  93 SE5         N/A
MILK RIVER       N/A     19  18  93 NE7         N/A  WCI  10
$$

REGIONAL REPORTS...SASKATCHEWAN

CITY           SKY/WX    TMP DP  RH WIND       PRES   REMARKS
SWIFT CURRENT  MOCLDY    16  12  86 W3        30.07R
REGINA         PTCLDY    21  18  86 S6        30.09S WCI  14
SASKATOON      PTCLDY    19  14  79 NW6       30.11R WCI  11
CYPRESS HILLS    N/A     14  10  85 NE5         N/A
VAL MARIE        N/A     23  21  93 NE12        N/A  WCI  12
ROCKGLEN         N/A     19  18  93 NE5         N/A
ASSINIBOIA       N/A     21  18  86 N5          N/A
$$




USA.gov is the U.S. government's official web portal to all federal, state and local government web resources and services.